"startDT [UTC]","vpos","CH4 [ppm]","stdev(CH4) [ppm]","CO2 [ppm]","stdev(CO2) [ppm]","H2O_reported [%]","stdev(H2O_reported)","CavityPressure [torr]","CavityTemp [C]","OutletValve","CH4_dry [ppm]","CO2_dry [ppm]","DasTemp [C]","EtalonTemp [C]","WarmBoxTemp [C]","MPVPosition","T_ECpre [C]","T_EC1 [C]","T_EC2 [C]","p_inlet [hPa]","p_in [hPa]","p_out [hPa]","T_inlet [C]","RH_inlet [%]","dwpt_inlet [C]","T_vent [C]","RH_vent [%]","dwpt_vent [C]","flow_vent [l min-1]","flow_inlet [l min-1]","dwpt_sample [C]","T_room [C]"
2013-09-04 00:00:00,0.0,1.93729,0.00231,390.103,0.080,1.2563,0.0019,140.002,45.000,31850.56213,1.96236,396.249,34.625,45.054,45.000,0.00,0.13,-272.56,-272.63,-21,578,-3,22.8,35.0,6.6,22.1,37.9,7.1,5.73,2.50,5.7,24.6
2013-09-04 00:01:00,0.0,1.94052,0.00158,390.150,0.064,1.2491,0.0022,140.002,45.000,31849.60261,1.96539,396.263,34.625,45.054,45.000,0.00,0.13,-272.57,-272.63,-21,578,-3,22.8,34.7,6.4,22.1,37.7,7.0,5.73,2.52,5.7,24.7
2013-09-04 00:02:00,0.0,1.94107,0.00125,390.015,0.084,1.2443,0.0019,140.002,45.000,31850.66617,1.96565,396.107,34.640,45.054,45.000,0.00,0.12,-272.57,-272.63,-21,578,-3,22.8,34.6,6.4,22.2,37.5,7.0,5.73,2.54,5.7,24.9
2013-09-04 00:03:00,0.0,1.93991,0.00216,389.813,0.056,1.2418,0.0026,140.002,45.000,31853.67566,1.96466,395.884,34.627,45.054,45.000,0.00,0.12,-272.56,-272.63,-21,578,-3,22.8,34.6,6.4,22.1,37.5,6.9,5.73,2.55,5.8,25.0
2013-09-04 00:04:00,0.0,1.93868,0.00198,389.598,0.084,1.2393,0.0013,139.997,45.000,31850.91378,1.96393,395.661,34.660,45.054,45.000,0.00,0.13,-272.56,-272.63,-21,578,-3,22.8,34.5,6.4,22.2,37.4,6.9,5.73,2.55,5.8,24.9
2013-09-04 00:05:00,0.0,1.93154,0.00269,389.278,0.097,1.2365,0.0016,140.000,45.000,31854.78372,1.95629,395.318,34.684,45.054,45.000,0.00,0.12,-272.57,-272.63,-21,578,-3,22.9,34.4,6.3,22.2,37.3,6.9,5.73,2.54,5.7,24.9
2013-09-04 00:06:00,0.0,1.93372,0.00111,389.229,0.054,1.2367,0.0018,140.000,45.000,31852.84130,1.95796,395.252,34.689,45.054,45.000,0.00,0.13,-272.57,-272.63,-21,578,-3,22.9,34.4,6.3,22.2,37.3,6.9,5.73,2.52,5.8,24.9
2013-09-04 00:07:00,0.0,1.93330,0.00218,389.183,0.074,1.2371,0.0016,140.003,45.000,31853.94689,1.95770,395.217,34.695,45.054,45.000,0.00,0.13,-272.56,-272.63,-21,578,-3,22.9,34.5,6.4,22.2,37.3,6.9,5.73,2.51,5.8,24.9
2013-09-04 00:08:00,0.0,1.93173,0.00275,388.951,0.134,1.2406,0.0027,140.002,45.000,31853.20618,1.95725,395.018,34.717,45.054,45.000,0.00,0.13,-272.57,-272.63,-21,578,-3,22.9,34.5,6.4,22.2,37.4,6.9,5.73,2.50,5.8,24.8
2013-09-04 00:09:00,0.0,1.92556,0.00425,388.625,0.158,1.2426,0.0020,140.004,45.000,31852.58021,1.95015,394.682,34.737,45.054,45.000,0.00,0.12,-272.57,-272.63,-21,578,-3,22.8,34.6,6.4,22.2,37.5,7.0,5.73,2.50,5.8,24.7
2013-09-04 00:10:00,0.0,1.92962,0.00358,388.881,0.228,1.2389,0.0016,139.998,45.000,31852.07093,1.95411,394.915,34.739,45.054,45.000,0.00,0.12,-272.57,-272.63,-21,578,-3,22.9,34.5,6.4,22.1,37.4,6.9,5.73,2.51,5.8,24.7
2013-09-04 00:11:00,0.0,1.92812,0.00179,388.735,0.066,1.2385,0.0016,140.001,45.000,31853.35578,1.95212,394.750,34.750,45.053,45.000,0.00,0.13,-272.56,-272.63,-21,578,-3,22.9,34.5,6.4,22.1,37.3,6.9,5.73,2.53,5.8,24.6
2013-09-04 00:12:00,0.0,1.92637,0.00149,388.683,0.060,1.2366,0.0021,139.998,45.000,31855.91781,1.95121,394.707,34.750,45.054,45.000,0.00,0.12,-272.57,-272.63,-21,578,-3,22.8,34.4,6.3,22.1,37.3,6.9,5.73,2.55,5.8,24.5
2013-09-04 00:13:00,0.0,1.93036,0.00318,389.039,0.168,1.2345,0.0017,140.004,45.000,31855.86115,1.95413,395.023,34.750,45.054,45.000,0.00,0.13,-272.57,-272.63,-21,578,-3,22.9,34.3,6.3,22.1,37.2,6.8,5.73,2.56,5.9,24.4
2013-09-04 00:14:00,0.0,1.92338,0.00504,388.495,0.304,1.2387,0.0022,139.998,45.000,31855.92993,1.94961,394.592,34.750,45.054,45.000,0.00,0.12,-272.57,-272.63,-21,578,-3,22.8,34.5,6.3,22.1,37.4,6.9,5.73,2.55,5.9,24.6
2013-09-04 00:15:00,0.0,1.92417,0.00807,388.448,0.465,1.2392,0.0016,139.997,45.000,31854.83767,1.94669,394.431,34.750,45.054,45.000,0.00,0.13,-272.57,-272.63,-21,578,-3,22.8,34.5,6.4,22.1,37.4,6.9,5.73,2.54,5.9,24.5
2013-09-04 00:16:00,0.0,1.93630,0.00312,389.199,0.232,1.2373,0.0018,140.000,45.000,31855.42699,1.96003,395.193,34.750,45.054,45.000,0.00,0.12,-272.57,-272.63,-21,578,-3,22.8,34.4,6.3,22.1,37.3,6.9,5.73,2.53,5.9,24.6
2013-09-04 00:17:00,0.0,1.93250,0.00526,389.055,0.263,1.2398,0.0016,140.006,45.000,31855.43523,1.95829,395.141,34.750,45.054,45.000,0.00,0.13,-272.57,-272.63,-21,578,-3,22.8,34.5,6.4,22.1,37.4,6.9,5.73,2.51,5.9,24.5
2013-09-04 00:18:00,0.0,1.93505,0.00171,389.098,0.135,1.2415,0.0018,140.006,45.000,31854.77272,1.95874,395.114,34.750,45.054,45.000,0.00,0.13,-272.56,-272.63,-21,578,-3,22.8,34.5,6.4,22.1,37.4,6.9,5.73,2.51,5.9,24.6
2013-09-04 00:19:00,0.0,1.93551,0.00199,389.191,0.136,1.2437,0.0015,139.998,45.000,31853.77530,1.96031,395.262,34.750,45.054,45.000,0.00,0.12,-272.56,-272.64,-21,578,-3,22.8,34.6,6.4,22.2,37.5,7.0,5.73,2.50,5.9,24.7
2013-09-04 00:20:00,0.0,1.93707,0.00176,389.202,0.061,1.2423,0.0017,139.997,45.000,31851.68031,1.96134,395.247,34.750,45.054,45.000,0.00,0.12,-272.56,-272.63,-21,578,-3,22.9,34.6,6.4,22.1,37.5,6.9,5.73,2.51,5.9,24.7
2013-09-04 00:21:00,0.0,1.93506,0.00170,389.068,0.123,1.2457,0.0017,140.006,45.000,31857.21201,1.96019,395.146,34.750,45.054,45.000,0.00,0.13,-272.57,-272.63,-21,578,-3,22.8,34.6,6.4,22.1,37.6,7.0,5.73,2.52,5.9,24.7
2013-09-04 00:22:00,0.0,1.93181,0.00159,388.873,0.082,1.2388,0.0040,140.001,45.000,31856.60387,1.95676,394.925,34.750,45.054,45.000,0.00,0.12,-272.57,-272.64,-21,579,-3,22.9,34.4,6.3,22.1,37.3,6.9,5.73,2.54,5.9,24.5
2013-09-04 00:23:00,0.0,1.93180,0.00263,388.664,0.209,1.2373,0.0031,140.000,45.000,31856.75658,1.95659,394.707,34.750,45.054,45.000,0.00,0.12,-272.57,-272.64,-21,578,-3,22.8,34.4,6.3,22.1,37.3,6.8,5.73,2.55,5.9,24.5
2013-09-04 00:24:00,0.0,1.93266,0.00309,388.537,0.081,1.2429,0.0020,139.998,45.000,31855.20729,1.95645,394.570,34.747,45.054,45.000,0.00,0.13,-272.56,-272.63,-21,578,-3,22.9,34.6,6.4,22.1,37.5,6.9,5.73,2.56,6.0,24.5
2013-09-04 00:25:00,0.0,1.93410,0.00216,388.615,0.076,1.2466,0.0052,140.001,45.000,31854.22682,1.95885,394.678,34.750,45.054,45.000,0.00,0.13,-272.57,-272.63,-21,578,-3,22.8,34.7,6.5,22.1,37.7,7.0,5.73,2.55,6.0,24.7
2013-09-04 00:26:00,0.0,1.93574,0.00227,388.592,0.055,1.2479,0.0025,140.001,45.000,31853.98084,1.96035,394.675,34.749,45.054,45.000,0.00,0.13,-272.57,-272.63,-21,578,-3,22.9,34.7,6.5,22.1,37.7,7.0,5.73,2.54,6.0,24.4
2013-09-04 00:27:00,0.0,1.93431,0.00144,388.138,0.065,1.2530,0.0044,140.006,45.000,31856.23001,1.95925,394.242,34.743,45.054,45.000,0.00,0.13,-272.57,-272.63,-21,578,-3,22.8,34.9,6.5,22.1,37.8,7.1,5.73,2.52,6.0,24.4
2013-09-04 00:28:00,0.0,1.93394,0.00185,388.052,0.167,1.2578,0.0019,139.998,45.000,31855.71008,1.95866,394.159,34.735,45.053,45.000,0.00,0.13,-272.56,-272.63,-21,578,-3,22.8,35.0,6.6,22.1,38.0,7.1,5.73,2.51,6.0,24.4
2013-09-04 00:29:00,0.0,1.93683,0.00206,388.354,0.141,1.2518,0.0021,140.000,45.000,31855.58648,1.96146,394.449,34.745,45.054,45.000,0.00,0.12,-272.57,-272.63,-21,578,-3,22.9,34.9,6.5,22.1,37.9,7.1,5.73,2.50,6.0,24.4
2013-09-04 00:30:00,0.0,1.94328,0.00183,388.666,0.163,1.2601,0.0047,140.001,45.000,31855.64096,1.96758,394.769,34.732,45.054,45.000,0.00,0.12,-272.56,-272.63,-21,578,-3,22.8,35.1,6.6,22.1,38.1,7.2,5.73,2.51,6.0,24.5
2013-09-04 00:31:00,0.0,1.94552,0.00082,388.828,0.069,1.2671,0.0042,140.001,45.000,31855.97424,1.97100,395.006,34.718,45.054,45.000,0.00,0.13,-272.56,-272.64,-21,578,-3,22.9,35.3,6.7,22.1,38.4,7.3,5.73,2.51,6.0,24.5
2013-09-04 00:32:00,0.0,1.94841,0.00242,388.941,0.177,1.2844,0.0041,140.003,45.000,31857.23218,1.97342,395.184,34.740,45.054,45.000,0.00,0.13,-272.56,-272.63,-21,578,-3,22.9,35.8,6.9,22.1,38.9,7.5,5.73,2.53,6.0,24.5
2013-09-04 00:33:00,0.0,1.94582,0.00193,388.671,0.131,1.2832,0.0021,139.998,45.000,31855.08824,1.97172,394.943,34.744,45.054,45.000,0.00,0.13,-272.56,-272.64,-21,578,-3,22.9,35.8,6.9,22.1,38.9,7.5,5.73,2.54,6.0,24.6
2013-09-04 00:34:00,0.0,1.94560,0.00461,388.710,0.290,1.2825,0.0062,140.001,45.000,31854.33678,1.97110,394.961,34.740,45.054,45.000,0.00,0.12,-272.56,-272.63,-21,578,-3,22.9,35.7,6.9,22.1,38.8,7.4,5.73,2.55,6.0,24.5
2013-09-04 00:35:00,0.0,1.94673,0.00178,388.756,0.085,1.2691,0.0026,140.000,45.000,31854.33191,1.97264,394.951,34.743,45.054,45.000,0.00,0.13,-272.56,-272.63,-21,578,-3,22.9,35.3,6.7,22.1,38.4,7.3,5.73,2.55,6.0,24.5
2013-09-04 00:36:00,0.0,1.95098,0.00115,389.098,0.124,1.2643,0.0038,140.004,45.000,31855.50892,1.97547,395.246,34.738,45.054,45.000,0.00,0.12,-272.57,-272.63,-21,578,-3,22.9,35.2,6.7,22.1,38.2,7.2,5.73,2.55,6.0,24.5
2013-09-04 00:37:00,0.0,1.95044,0.00361,389.081,0.260,1.2661,0.0050,140.001,45.000,31855.91784,1.97580,395.255,34.744,45.054,45.000,0.00,0.13,-272.57,-272.63,-21,578,-3,22.9,35.2,6.7,22.1,38.3,7.2,5.73,2.54,6.1,24.5
2013-09-04 00:38:00,0.0,1.94859,0.00251,389.028,0.147,1.2539,0.0082,140.003,45.000,31855.68189,1.97361,395.148,34.746,45.054,45.000,0.00,0.13,-272.56,-272.63,-21,578,-3,22.9,34.8,6.5,22.1,37.8,7.1,5.73,2.53,6.1,24.5
2013-09-04 00:39:00,0.0,1.95466,0.00271,389.456,0.185,1.2518,0.0021,140.002,45.000,31854.31333,1.97884,395.525,34.750,45.054,45.000,0.00,0.13,-272.56,-272.63,-21,578,-3,22.9,34.8,6.5,22.2,37.7,7.1,5.73,2.51,6.1,24.6
2013-09-04 00:40:00,0.0,1.95616,0.00303,389.586,0.137,1.2537,0.0035,140.007,45.000,31856.46678,1.98157,395.709,34.751,45.054,45.000,0.00,0.13,-272.56,-272.63,-21,578,-3,22.9,34.8,6.5,22.2,37.8,7.1,5.73,2.50,6.1,24.6
2013-09-04 00:41:00,0.0,1.94641,0.00572,388.986,0.395,1.2502,0.0027,140.000,45.000,31856.15701,1.97282,395.141,34.754,45.054,45.000,0.00,0.12,-272.56,-272.63,-21,578,-3,22.9,34.7,6.5,22.2,37.7,7.0,5.73,2.51,6.1,24.6
2013-09-04 00:42:00,0.0,1.95496,0.00915,389.368,0.548,1.2424,0.0029,139.995,45.000,31855.09564,1.97746,395.352,34.766,45.054,45.000,0.00,0.13,-272.56,-272.63,-21,579,-3,22.9,34.5,6.4,22.2,37.4,6.9,5.73,2.51,6.1,24.7
2013-09-04 00:43:00,0.0,1.96586,0.00672,390.061,0.290,1.2530,0.0052,140.002,45.000,31855.67948,1.99129,396.169,34.797,45.054,45.000,0.00,0.12,-272.57,-272.64,-21,579,-3,22.9,34.8,6.5,22.2,37.7,7.1,5.73,2.52,6.1,24.7
2013-09-04 00:44:00,0.0,1.96776,0.00462,390.111,0.226,1.2572,0.0065,140.001,45.000,31857.89185,1.99295,396.264,34.812,45.054,45.000,0.00,0.13,-272.56,-272.63,-21,579,-3,22.9,34.9,6.6,22.2,37.9,7.1,5.73,2.53,6.1,24.7
2013-09-04 00:45:00,0.0,1.97482,0.01028,390.495,0.539,1.2523,0.0056,140.002,45.000,31860.75846,1.99954,396.616,34.812,45.054,45.000,0.00,0.13,-272.56,-272.63,-21,578,-3,22.9,34.7,6.5,22.2,37.7,7.1,5.73,2.54,6.1,24.7
2013-09-04 00:46:00,0.0,1.97211,0.00459,390.350,0.181,1.2583,0.0015,139.999,45.000,31859.77042,1.99750,396.492,34.811,45.054,45.000,0.00,0.12,-272.57,-272.64,-21,578,-3,22.9,34.9,6.6,22.2,37.9,7.1,5.73,2.55,6.1,24.7
2013-09-04 00:47:00,0.0,1.99085,0.00794,391.358,0.440,1.2570,0.0020,140.000,45.000,31858.58846,2.01293,397.456,34.812,45.054,45.000,0.00,0.13,-272.57,-272.64,-21,578,-3,22.9,34.8,6.6,22.2,37.8,7.1,5.73,2.55,6.1,24.7
2013-09-04 00:48:00,0.0,1.97644,0.01375,390.722,0.706,1.2550,0.0013,140.002,45.000,31859.45677,2.00554,396.945,34.813,45.054,45.000,0.00,0.13,-272.56,-272.63,-21,579,-3,22.9,34.8,6.5,22.2,37.8,7.1,5.73,2.54,6.1,24.8
2013-09-04 00:49:00,0.0,1.97427,0.00609,390.505,0.322,1.2561,0.0049,140.003,45.000,31861.24712,2.00013,396.642,34.813,45.054,45.000,0.00,0.13,-272.57,-272.63,-21,579,-3,22.9,34.8,6.6,22.2,37.8,7.1,5.73,2.53,6.1,24.9
2013-09-04 00:50:00,0.0,1.93951,0.00669,388.512,0.334,1.2600,0.0072,140.002,45.000,31861.31822,1.96757,394.750,34.814,45.053,45.000,0.00,0.13,-272.57,-272.63,-21,579,-3,22.9,34.9,6.6,22.2,37.9,7.2,5.73,2.50,6.1,25.0
2013-09-04 00:51:00,0.0,1.94218,0.00591,388.766,0.294,1.2561,0.0052,140.000,45.000,31859.99095,1.96539,394.835,34.825,45.054,45.000,0.00,0.13,-272.56,-272.63,-22,579,-3,22.9,34.8,6.6,22.2,37.8,7.1,5.73,2.49,6.2,25.0
2013-09-04 00:52:00,0.0,1.95345,0.00564,389.481,0.214,1.2553,0.0029,140.002,45.000,31860.33081,1.97786,395.583,34.821,45.054,45.000,0.00,0.13,-272.56,-272.63,-21,578,-3,22.9,34.8,6.5,22.2,37.8,7.1,5.73,2.50,6.1,25.1
2013-09-04 00:53:00,0.0,1.94920,0.00755,389.429,0.301,1.2584,0.0032,140.004,45.000,31863.85256,1.97607,395.602,34.820,45.054,45.000,0.00,0.12,-272.57,-272.64,-21,579,-3,22.9,34.8,6.6,22.2,37.8,7.1,5.73,2.53,6.2,25.2
2013-09-04 00:54:00,0.0,1.94082,0.00582,389.033,0.212,1.2492,0.0046,140.000,45.000,31863.29977,1.96647,395.143,34.836,45.054,45.000,0.00,0.13,-272.57,-272.63,-21,579,-3,22.9,34.5,6.5,22.2,37.5,7.0,5.73,2.56,6.2,25.2
2013-09-04 00:55:00,0.0,1.93665,0.00118,388.940,0.056,1.2389,0.0028,139.999,45.000,31861.54017,1.96132,394.971,34.826,45.054,45.000,0.00,0.13,-272.56,-272.63,-21,579,-3,22.9,34.2,6.3,22.2,37.1,6.9,5.73,2.57,6.2,25.2
2013-09-04 00:56:00,0.0,1.94036,0.00155,389.133,0.028,1.2433,0.0066,140.003,45.000,31861.81396,1.96499,395.178,34.817,45.054,45.000,0.00,0.12,-272.57,-272.64,-22,579,-3,23.0,34.4,6.4,22.3,37.2,6.9,5.73,2.54,6.2,25.2
2013-09-04 00:57:00,0.0,1.93616,0.00093,389.402,0.072,1.2572,0.0051,140.001,45.000,31861.80521,1.96132,395.525,34.815,45.054,45.000,0.00,0.12,-272.57,-272.63,-21,578,-3,23.0,34.8,6.6,22.3,37.7,7.2,5.73,2.51,6.2,25.3
2013-09-04 00:58:00,0.0,1.93454,0.00106,389.708,0.104,1.2473,0.0032,140.005,45.000,31863.49094,1.95960,395.783,34.813,45.053,45.000,0.00,0.13,-272.56,-272.63,-21,579,-3,23.0,34.4,6.4,22.3,37.3,7.0,5.73,2.48,6.2,25.3
2013-09-04 00:59:00,0.0,1.93430,0.00028,389.467,0.046,1.2465,0.0024,139.996,45.000,31858.62220,1.95890,395.557,34.813,45.054,45.000,0.00,0.12,-272.56,-272.63,-21,579,-3,23.0,34.4,6.4,22.3,37.3,7.0,5.73,2.50,6.2,25.3
2013-09-04 01:00:00,0.0,1.93383,0.00089,389.905,0.160,1.2471,0.0075,140.008,45.000,31862.21098,1.95871,395.963,34.814,45.054,45.000,0.00,0.12,-272.57,-272.63,-22,579,-3,23.0,34.3,6.4,22.3,37.3,7.0,5.73,2.53,6.2,25.2
2013-09-04 01:01:00,0.0,1.93413,0.00053,390.076,0.083,1.2320,0.0023,139.998,45.000,31860.43719,1.95846,396.098,34.815,45.054,45.000,0.00,0.13,-272.56,-272.63,-22,579,-3,23.0,34.0,6.2,22.3,36.8,6.8,5.73,2.56,6.2,25.3
2013-09-04 01:02:00,0.0,1.93362,0.00049,390.011,0.097,1.2386,0.0036,140.003,45.000,31863.29068,1.95816,396.057,34.816,45.054,45.000,0.00,0.13,-272.56,-272.63,-21,579,-3,23.0,34.1,6.3,22.3,37.0,6.9,5.73,2.56,6.2,25.2
2013-09-04 01:03:00,0.0,1.93365,0.00047,390.142,0.081,1.2422,0.0016,140.006,45.000,31864.53902,1.95824,396.212,34.816,45.054,45.000,0.00,0.13,-272.57,-272.64,-21,579,-3,23.0,34.2,6.4,22.3,37.1,7.0,5.73,2.54,6.2,25.2
2013-09-04 01:04:00,0.0,1.93430,0.00058,389.848,0.088,1.2476,0.0035,139.996,45.000,31861.68156,1.95908,395.954,34.813,45.054,45.000,0.00,0.13,-272.57,-272.63,-21,579,-3,23.0,34.4,6.4,22.3,37.2,7.0,5.73,2.51,6.2,25.2
2013-09-04 01:05:00,0.0,1.93297,0.00066,389.815,0.065,1.2532,0.0048,139.997,45.000,31863.54715,1.95791,395.925,34.834,45.054,45.000,0.00,0.13,-272.56,-272.63,-22,579,-4,23.0,34.5,6.5,22.3,37.4,7.1,5.73,2.49,6.3,25.3
2013-09-04 01:06:00,0.0,1.93241,0.00051,390.022,0.100,1.2347,0.0064,139.999,45.000,31864.32776,1.95680,396.057,34.849,45.054,45.000,0.00,0.13,-272.56,-272.64,-22,579,-4,23.0,33.9,6.3,22.4,36.8,6.9,5.73,2.49,6.3,25.3
2013-09-04 01:07:00,0.0,1.93363,0.00037,389.801,0.053,1.2359,0.0048,140.006,45.000,31866.02784,1.95802,395.834,34.869,45.053,45.000,0.00,0.13,-272.56,-272.63,-22,579,-3,23.0,34.0,6.3,22.4,36.8,6.9,5.73,2.51,6.3,25.3
2013-09-04 01:08:00,0.0,1.93369,0.00043,389.931,0.153,1.2493,0.0052,140.003,45.000,31866.37182,1.95852,396.013,34.875,45.053,45.000,0.00,0.13,-272.56,-272.63,-21,579,-4,23.0,34.4,6.5,22.4,37.2,7.1,5.73,2.55,6.3,25.4
2013-09-04 01:09:00,0.0,1.93253,0.00053,390.279,0.034,1.2543,0.0022,139.999,45.000,31864.93393,1.95744,396.405,34.874,45.053,45.000,0.00,0.13,-272.56,-272.64,-22,579,-4,23.0,34.5,6.5,22.4,37.4,7.1,5.73,2.56,6.3,25.4
2013-09-04 01:10:00,0.0,1.93305,0.00053,390.183,0.056,1.2478,0.0027,140.003,45.000,31865.33935,1.95780,396.291,34.870,45.053,45.000,0.00,0.13,-272.56,-272.63,-22,579,-4,23.1,34.2,6.4,22.4,37.1,7.0,5.73,2.55,6.3,25.5
2013-09-04 01:11:00,0.0,1.93309,0.00047,390.144,0.071,1.2493,0.0044,140.000,45.000,31865.77859,1.95778,396.244,34.875,45.053,45.000,0.00,0.13,-272.56,-272.63,-22,579,-4,23.1,34.3,6.5,22.4,37.1,7.0,5.73,2.52,6.3,25.5
2013-09-04 01:12:00,0.0,1.93359,0.00051,390.401,0.128,1.2559,0.0021,139.999,45.000,31864.63333,1.95833,396.520,34.875,45.054,45.000,0.00,0.13,-272.56,-272.63,-22,579,-4,23.1,34.4,6.5,22.4,37.3,7.1,5.73,2.50,6.3,25.4
2013-09-04 01:13:00,0.0,1.93388,0.00031,390.780,0.150,1.2491,0.0021,140.003,45.000,31868.15305,1.95873,396.883,34.875,45.054,45.000,0.00,0.13,-272.56,-272.64,-22,579,-4,23.1,34.2,6.5,22.4,37.1,7.1,5.73,2.48,6.4,25.4
2013-09-04 01:14:00,0.0,1.93409,0.00027,391.196,0.104,1.2444,0.0025,139.999,45.000,31867.23749,1.95871,397.278,34.876,45.054,45.000,0.00,0.13,-272.56,-272.63,-22,580,-4,23.1,34.0,6.4,22.4,36.9,7.0,5.73,2.49,6.4,25.4
2013-09-04 01:15:00,0.0,1.93387,0.00034,391.127,0.087,1.2361,0.0018,140.003,45.000,31867.95389,1.95836,397.186,34.888,45.054,45.000,0.00,0.13,-272.56,-272.63,-22,580,-4,23.1,33.7,6.3,22.4,36.6,6.8,5.73,2.52,6.4,25.4
2013-09-04 01:16:00,0.0,1.93359,0.00027,391.319,0.128,1.2329,0.0025,139.998,45.000,31866.80126,1.95803,397.339,34.894,45.054,45.000,0.00,0.12,-272.57,-272.63,-22,580,-4,23.2,33.7,6.3,22.5,36.5,6.9,5.73,2.55,6.4,25.5
2013-09-04 01:17:00,0.0,1.93321,0.00055,391.403,0.111,1.2373,0.0039,140.000,45.000,31870.59996,1.95782,397.482,34.896,45.054,45.000,0.00,0.13,-272.57,-272.64,-22,579,-4,23.2,33.8,6.3,22.5,36.6,6.9,5.73,2.56,6.4,25.4
2013-09-04 01:18:00,0.0,1.93280,0.00032,391.273,0.081,1.2519,0.0063,140.000,45.000,31870.25491,1.95761,397.389,34.909,45.054,45.000,0.00,0.13,-272.56,-272.63,-17,581,-6,23.2,34.2,6.5,22.5,37.0,7.1,5.73,2.54,6.4,25.2
2013-09-04 01:19:00,0.0,1.93213,0.00047,391.605,0.132,1.2581,0.0041,139.996,45.000,31870.74478,1.95712,397.779,34.939,45.054,45.000,0.00,0.13,-272.56,-272.63,-23,581,-5,23.2,34.3,6.6,22.5,37.2,7.2,5.73,2.52,6.5,25.1
2013-09-04 01:20:00,0.0,1.93189,0.00010,391.706,0.144,1.2514,0.0070,139.998,45.000,31873.33494,1.95671,397.837,34.945,45.054,45.000,0.00,0.13,-272.57,-272.63,-21,580,-4,23.2,34.0,6.5,22.5,36.9,7.1,5.73,2.51,6.5,25.1
2013-09-04 01:21:00,0.0,1.93178,0.00080,391.988,0.156,1.2220,0.0051,140.001,45.000,31873.01552,1.95617,397.962,34.945,45.054,45.000,0.00,0.13,-272.56,-272.63,-22,580,-4,23.2,33.2,6.1,22.5,36.0,6.7,5.73,2.50,6.5,25.1
2013-09-04 01:22:00,0.0,1.93182,0.00064,392.069,0.107,1.2098,0.0032,140.001,45.000,31876.82720,1.95564,398.028,34.984,45.054,45.000,0.00,0.13,-272.56,-272.63,-22,580,-4,23.2,32.8,5.9,22.5,35.6,6.5,5.73,2.50,6.5,25.2
2013-09-04 01:23:00,0.0,1.93151,0.00031,392.066,0.046,1.2126,0.0043,140.001,45.000,31877.02048,1.95548,398.009,34.995,45.054,45.000,0.00,0.13,-272.56,-272.63,-22,580,-4,23.2,32.9,6.0,22.5,35.7,6.5,5.73,2.50,6.5,25.2
2013-09-04 01:24:00,0.0,1.93050,0.00049,392.242,0.127,1.2212,0.0039,140.003,45.001,31878.75371,1.95466,398.218,35.000,45.054,45.000,0.00,0.13,-272.56,-272.63,-22,580,-4,23.2,33.2,6.1,22.5,36.0,6.7,5.73,2.51,6.5,25.1
2013-09-04 01:25:00,0.0,1.93035,0.00039,392.494,0.038,1.2168,0.0047,140.000,45.000,31878.34468,1.95451,398.461,35.000,45.054,45.000,0.00,0.13,-272.56,-272.62,-22,580,-4,23.2,33.0,6.0,22.5,35.8,6.6,5.73,2.52,6.5,25.1
2013-09-04 01:26:00,0.0,1.92986,0.00048,392.625,0.053,1.2089,0.0044,140.003,45.000,31881.13712,1.95375,398.558,35.013,45.054,45.000,0.00,0.13,-272.56,-272.63,-22,580,-4,23.2,32.8,6.0,22.5,35.5,6.5,5.73,2.53,6.6,25.1
2013-09-04 01:27:00,0.0,1.92987,0.00032,392.488,0.065,1.2179,0.0022,139.997,45.000,31879.50918,1.95391,398.479,35.037,45.054,45.000,0.00,0.13,-272.57,-272.63,-21,580,-4,23.3,33.0,6.1,22.5,35.8,6.6,5.73,2.53,6.6,25.2
2013-09-04 01:28:00,0.0,1.92974,0.00029,392.474,0.067,1.2264,0.0049,140.003,45.000,31880.74552,1.95399,398.487,35.061,45.054,45.000,0.00,0.13,-272.56,-272.63,-22,580,-4,23.2,33.2,6.2,22.6,36.0,6.7,5.73,2.54,6.6,25.0
2013-09-04 01:29:00,0.0,1.93011,0.00041,392.552,0.060,1.2202,0.0044,140.002,45.001,31882.00950,1.95422,398.556,35.063,45.054,45.000,0.00,0.13,-272.56,-272.63,-22,580,-4,23.2,33.0,6.1,22.6,35.8,6.7,5.73,2.54,6.6,25.0
2013-09-04 01:30:00,0.0,1.93063,0.00035,392.597,0.054,1.2168,0.0023,140.003,45.000,31882.45283,1.95460,398.571,35.074,45.054,45.000,0.00,0.13,-272.57,-272.63,-22,580,-4,23.2,33.0,6.0,22.6,35.7,6.6,5.73,2.54,6.6,25.0
2013-09-04 01:31:00,0.0,1.93060,0.00050,392.656,0.058,1.2149,0.0026,140.004,45.000,31884.48887,1.95458,398.616,35.084,45.054,45.000,0.00,0.13,-272.56,-272.63,-22,580,-4,23.2,32.9,6.0,22.6,35.7,6.6,5.73,2.53,6.6,25.1
2013-09-04 01:32:00,0.0,1.93104,0.00035,392.740,0.026,1.2103,0.0022,139.996,45.000,31881.20527,1.95498,398.685,35.116,45.054,45.000,0.00,0.13,-272.56,-272.63,-22,580,-4,23.3,32.7,6.0,22.6,35.4,6.5,5.73,2.53,6.6,25.0
2013-09-04 01:33:00,0.0,1.93056,0.00043,392.772,0.030,1.2122,0.0030,140.004,45.000,31886.14419,1.95457,398.730,35.116,45.054,45.000,0.00,0.13,-272.56,-272.63,-22,580,-4,23.3,32.7,6.0,22.6,35.5,6.5,5.73,2.52,6.6,25.0
2013-09-04 01:34:00,0.0,1.93082,0.00034,392.839,0.038,1.2061,0.0041,139.999,45.000,31885.50027,1.95456,398.763,35.125,45.054,45.000,0.00,0.13,-272.56,-272.63,-22,580,-4,23.3,32.5,5.9,22.6,35.3,6.4,5.73,2.52,6.6,25.0
2013-09-04 01:35:00,0.0,1.93096,0.00039,392.664,0.075,1.2092,0.0061,139.991,45.000,31883.74672,1.95494,398.610,35.125,45.054,45.000,0.00,0.13,-272.56,-272.63,-22,580,-4,23.3,32.7,6.0,22.6,35.4,6.5,5.73,2.52,6.6,25.0
2013-09-04 01:36:00,0.0,1.93058,0.00048,392.513,0.050,1.2261,0.0029,140.001,45.000,31887.16685,1.95474,398.537,35.125,45.054,45.000,0.00,0.13,-272.56,-272.63,-22,580,-4,23.3,33.1,6.2,22.6,35.9,6.7,5.73,2.51,6.6,25.0
2013-09-04 01:37:00,0.0,1.93071,0.00038,392.662,0.101,1.2309,0.0046,140.002,45.000,31888.42057,1.95509,398.704,35.132,45.054,45.000,0.00,0.13,-272.56,-272.63,-22,580,-4,23.3,33.2,6.2,22.6,36.1,6.8,5.73,2.51,6.6,25.1
2013-09-04 01:38:00,0.0,1.93070,0.00039,392.709,0.054,1.2187,0.0021,140.002,45.000,31889.23758,1.95478,398.695,35.146,45.054,45.000,0.00,0.13,-272.56,-272.63,-22,580,-4,23.3,32.9,6.1,22.6,35.7,6.6,5.73,2.51,6.7,25.2
2013-09-04 01:39:00,0.0,1.93050,0.00041,392.689,0.077,1.2223,0.0036,140.003,45.000,31891.65638,1.95465,398.694,35.163,45.054,45.000,0.00,0.13,-272.56,-272.63,-22,580,-4,23.3,32.9,6.1,22.6,35.7,6.7,5.73,2.51,6.7,25.2
2013-09-04 01:40:00,0.0,1.93041,0.00039,392.793,0.051,1.2144,0.0030,139.999,45.000,31890.73419,1.95445,398.760,35.168,45.054,45.000,0.00,0.13,-272.57,-272.64,-22,580,-4,23.3,32.7,6.0,22.6,35.5,6.6,5.73,2.51,6.7,25.1
2013-09-04 01:41:00,0.0,1.93013,0.00016,392.847,0.036,1.2100,0.0044,140.000,45.000,31892.00563,1.95409,398.797,35.161,45.054,45.000,0.00,0.13,-272.56,-272.63,-22,580,-4,23.3,32.6,5.9,22.6,35.3,6.5,5.73,2.52,6.6,25.1
2013-09-04 01:42:00,0.0,1.92988,0.00033,392.896,0.037,1.2075,0.0015,140.002,45.000,31893.90905,1.95378,398.831,35.185,45.054,45.000,0.00,0.13,-272.56,-272.63,-22,580,-4,23.3,32.5,5.9,22.6,35.3,6.5,5.73,2.51,6.7,25.0
2013-09-04 01:43:00,0.0,1.92934,0.00057,392.910,0.077,1.2100,0.0021,140.003,45.000,31893.98625,1.95326,398.864,35.184,45.054,45.000,0.00,0.13,-272.56,-272.64,-22,580,-4,23.3,32.5,5.9,22.6,35.2,6.5,5.73,2.53,6.7,25.0
2013-09-04 01:44:00,0.0,1.92939,0.00036,392.849,0.066,1.2143,0.0032,140.004,45.000,31895.14042,1.95341,398.815,35.188,45.054,45.000,0.00,0.13,-272.57,-272.63,-22,580,-4,23.3,32.7,6.0,22.6,35.4,6.5,5.73,2.52,6.7,25.0
2013-09-04 01:45:00,0.0,1.92904,0.00050,392.774,0.081,1.2171,0.0023,140.003,45.000,31894.60947,1.95303,398.749,35.188,45.054,45.000,0.00,0.13,-272.56,-272.63,-22,580,-4,23.3,32.7,6.0,22.6,35.5,6.6,5.73,2.53,6.7,25.0
2013-09-04 01:46:00,0.0,1.92861,0.00082,392.855,0.051,1.2153,0.0032,139.998,45.000,31893.68298,1.95280,398.827,35.189,45.054,45.000,0.00,0.13,-272.56,-272.63,-22,580,-4,23.3,32.7,6.0,22.6,35.4,6.6,5.73,2.53,6.7,24.9
2013-09-04 01:47:00,0.0,1.92819,0.00096,393.030,0.027,1.2049,0.0063,140.005,45.000,31896.27758,1.95208,398.955,35.198,45.054,45.000,0.00,0.13,-272.57,-272.63,-22,580,-4,23.4,32.3,5.9,22.6,35.1,6.4,5.73,2.53,6.7,25.1